GW1476 Weather Reports


time (UTC)temp
F
wind
direction
speed
knots
gust
knots
rain 1hr
in
rain 24hr
in
rain mn
in
humidity
%
barometer
mb
20260902002718 79 225 1.7 1.7 0.00 0.00 0.00 99 1019.9
20260902002122 79 225 0.9 1.7 0.00 0.00 0.00 99 1019.9
20260902001528 80 203 2.6 2.6 0.00 0.00 0.00 99 1019.9
20260902000948 80 225 1.7 2.6 0.00 0.00 0.00 99 1019.9
20260902000315 81 203 1.7 2.6 0.00 0.00 0.00 98 1019.6
20260901235711 82 203 1.7 2.6 0.00 0.00 0.00 95 1019.6
20260901235130 83 203 1.7 1.7 0.00 0.00 0.00 93 1019.6
20260901234505 83 203 0.9 1.7 0.00 0.00 0.00 91 1019.6
20260901233934 85 203 0.9 1.7 0.00 0.00 0.00 88 1019.6
20260901233312 84 203 1.7 1.7 0.00 0.00 0.00 89 1019.6
20260901232707 87 203 1.7 1.7 0.00 0.00 0.00 84 1019.6
20260901232113 87 225 0.9 2.6 0.00 0.00 0.00 83 1019.6
20260901230931 88 203 1.7 2.6 0.00 0.00 0.00 82 1019.6
20260901225719 90 225 0.9 2.6 0.00 0.00 0.00 77 1019.6
20260901225118 91 225 1.7 2.6 0.00 0.00 0.00 76 1019.9
20260901224541 92 203 2.6 2.6 0.00 0.00 0.00 75 1019.6
20260901223905 92 248 2.6 3.5 0.00 0.00 0.00 73 1019.9
20260901222744 96 203 1.7 1.7 0.00 0.00 0.00 68 1019.6
20260901222123 97 203 2.6 2.6 0.00 0.00 0.00 66 1019.9
20260901221519 93 225 1.7 1.7 0.00 0.00 0.00 72 1019.9
20260901220937 94 180 2.6 2.6 0.00 0.00 0.00 71 1019.9
20260901220314 94 180 2.6 3.5 0.00 0.00 0.00 70 1019.9
20260901215708 94 203 1.7 3.5 0.00 0.00 0.00 71 1019.9
20260901215141 96 203 2.6 2.6 0.00 0.00 0.00 68 1019.9
20260901213934 94 180 2.6 3.5 0.00 0.00 0.00 70 1020.3
20260901213334 98 203 2.6 2.6 0.00 0.00 0.00 65 1020.3
20260901212705 98 270 0.9 1.7 0.00 0.00 0.00 63 1019.9
20260901211508 98 203 2.6 2.6 0.00 0.00 0.00 62 1020.3
20260901210914 94 225 1.7 2.6 0.00 0.00 0.00 67 1020.3
20260901210320 100 23 1.7 2.6 0.00 0.00 0.00 55 1020.3
20260901205735 100 270 0.9 1.7 0.00 0.00 0.00 55 1020.3
20260901205142 96 158 1.7 4.3 0.00 0.00 0.00 60 1020.6
20260901204528 96 68 2.6 4.3 0.00 0.00 0.00 59 1020.6
20260901203922 95 23 2.6 4.3 0.00 0.00 0.00 59 1020.6
20260901203314 94 0 2.6 5.2 0.00 0.00 0.00 59 1020.6
20260901202136 97 293 2.6 4.3 0.00 0.00 0.00 55 1020.6
20260901201524 98 0 5.2 5.2 0.00 0.00 0.00 54 1020.6
20260901200908 98 0 3.5 4.3 0.00 0.00 0.00 53 1020.6
20260901200323 98 0 1.7 3.5 0.00 0.00 0.00 56 1020.6
20260901195747 97 338 1.7 4.3 0.00 0.00 0.00 56 1020.6
20260901195146 97 0 1.7 5.2 0.00 0.00 0.00 57 1020.6
20260901194511 98 0 7.0 7.0 0.00 0.00 0.00 55 1020.6
20260901193915 96 45 3.5 3.5 0.00 0.00 0.00 56 1020.6
20260901193312 97 225 0.0 3.5 0.00 0.00 0.00 56 1020.6
20260901192710 98 0 2.6 3.5 0.00 0.00 0.00 54 1020.6
20260901191529 101 203 2.6 3.5 0.00 0.00 0.00 51 1020.9
20260901190909 100 203 0.9 3.5 0.00 0.00 0.00 54 1020.9
20260901190310 99 158 1.7 1.7 0.00 0.00 0.00 56 1020.9
20260901185716 100 315 0.0 3.5 0.00 0.00 0.00 54 1020.9
20260901185125 101 0 0.9 1.7 0.00 0.00 0.00 54 1020.9
20260901184513 98 45 3.5 3.5 0.00 0.00 0.00 57 1020.9
20260901183945 99 0 2.6 5.2 0.00 0.00 0.00 56 1021.3
20260901183325 99 113 0.9 2.6 0.00 0.00 0.00 56 1021.6
20260901182718 98 23 1.7 2.6 0.00 0.00 0.00 57 1021.6
20260901182138 97 45 1.7 2.6 0.00 0.00 0.00 59 1021.6
20260901180914 97 90 0.9 3.5 0.00 0.00 0.00 59 1021.6
20260901180342 97 113 3.5 7.0 0.00 0.00 0.00 59 1022.0
20260901175128 96 248 0.9 3.5 0.00 0.00 0.00 62 1022.0
20260901174519 97 315 3.5 5.2 0.00 0.00 0.00 61 1022.0
20260901173942 97 315 2.6 6.1 0.00 0.00 0.00 60 1022.0
20260901173345 96 45 3.5 3.5 0.00 0.00 0.00 63 1022.0
20260901172735 96 23 1.7 1.7 0.00 0.00 0.00 64 1022.0
20260901171514 96 68 3.5 5.2 0.00 0.00 0.00 63 1022.3
20260901170924 95 68 1.7 5.2 0.00 0.00 0.00 65 1022.3
20260901170319 95 270 3.5 3.5 0.00 0.00 0.00 67 1022.3
20260901165707 94 23 3.5 3.5 0.00 0.00 0.00 68 1022.0
20260901165116 94 338 2.6 7.8 0.00 0.00 0.00 67 1022.3
20260901164521 94 0 6.1 6.1 0.00 0.00 0.00 68 1022.3
20260901163939 94 158 0.9 3.5 0.00 0.00 0.00 68 1022.3
20260901163326 95 180 2.6 2.6 0.00 0.00 0.00 68 1022.3
20260901162727 94 225 1.7 1.7 0.00 0.00 0.00 69 1022.3
20260901162125 94 203 1.7 1.7 0.00 0.00 0.00 69 1022.3
20260901161512 94 23 1.7 3.5 0.00 0.00 0.00 68 1022.3
20260901160937 93 180 1.7 2.6 0.00 0.00 0.00 71 1022.3
20260901160344 92 180 1.7 3.5 0.00 0.00 0.00 72 1022.3
20260901155738 93 293 2.6 2.6 0.00 0.00 0.00 70 1022.3
20260901155108 92 158 3.5 3.5 0.00 0.00 0.00 72 1022.3
20260901154540 92 270 4.3 4.3 0.00 0.00 0.00 72 1022.3
20260901153951 92 270 1.7 4.3 0.00 0.00 0.00 73 1022.3
20260901152708 91 203 3.5 3.5 0.00 0.00 0.00 75 1022.3
20260901151536 91 225 2.6 2.6 0.00 0.00 0.00 77 1022.3
20260901150347 91 203 1.7 2.6 0.00 0.00 0.00 78 1022.6
20260901145129 88 203 1.7 1.7 0.00 0.00 0.00 82 1022.6
20260901143932 87 203 1.7 2.6 0.00 0.00 0.00 83 1022.6
20260901143331 86 203 1.7 2.6 0.00 0.00 0.00 86 1022.6
20260901142146 85 180 1.7 1.7 0.00 0.00 0.00 87 1022.6
20260901141522 85 23 1.7 1.7 0.00 0.00 0.00 87 1022.6
20260901140918 83 90 1.7 1.7 0.00 0.00 0.00 92 1022.6
20260901140326 84 158 0.0 1.7 0.00 0.00 0.00 90 1022.6
20260901135741 82 203 0.0 0.0 0.00 0.00 0.00 91 1022.6
20260901133348 80 113 0.0 0.0 0.00 0.00 0.00 97 1023.0
20260901132707 79 135 0.0 0.0 0.00 0.00 0.00 97 1023.0
20260901131519 77 180 0.0 0.0 0.00 0.00 0.00 99 1023.0
20260901130326 76 270 0.0 0.0 0.00 0.00 0.00 99 1023.0
20260901125711 75 248 0.0 0.0 0.00 0.00 0.00 99 1023.0
20260901125114 75 225 0.0 0.0 0.00 0.00 0.00 99 1023.0
20260901124529 74 203 0.0 0.0 0.00 0.00 0.00 99 1023.0
20260901123317 72 203 0.0 0.0 0.00 0.00 0.00 99 1023.0
20260901122721 71 225 0.0 0.0 0.00 0.00 0.00 99 1023.0
20260901122121 71 203 0.0 0.0 0.00 0.00 0.00 99 1023.0
20260901121534 71 225 0.0 0.0 0.00 0.00 0.00 99 1023.0
20260901120934 71 225 0.0 0.0 0.00 0.00 0.00 99 1023.0
20260901120343 71 225 0.0 0.0 0.00 0.00 0.00 99 1023.0
20260901115106 71 225 0.0 0.0 0.00 0.00 0.00 99 1022.6
20260901113931 70 248 0.0 0.0 0.00 0.00 0.00 99 1022.3
20260901113327 70 225 0.0 0.0 0.00 0.00 0.00 99 1022.3
20260901112749 70 248 0.0 0.0 0.00 0.00 0.00 99 1022.3
20260901112143 70 225 0.0 0.0 0.00 0.00 0.00 99 1022.3
20260901111522 70 225 0.0 0.0 0.00 0.00 0.00 99 1022.3
20260901110924 70 203 0.0 0.0 0.00 0.00 0.00 99 1022.3
20260901110308 70 203 0.0 0.0 0.00 0.00 0.00 99 1022.0
20260901105744 70 180 0.0 0.0 0.00 0.00 0.00 99 1022.0
20260901105136 70 203 0.0 0.0 0.00 0.00 0.00 99 1022.0
20260901104533 70 203 0.0 0.0 0.00 0.00 0.00 99 1022.0
20260901103310 70 225 0.0 0.0 0.00 0.00 0.00 99 1022.0
20260901102120 70 203 0.0 0.0 0.00 0.00 0.00 99 1021.6
20260901101526 70 225 0.0 0.0 0.00 0.00 0.00 99 1022.0
20260901100947 70 203 0.0 0.0 0.00 0.00 0.00 99 1021.6
20260901100328 70 203 0.0 0.0 0.00 0.00 0.00 99 1021.6
20260901095141 70 203 0.0 0.0 0.00 0.00 0.00 99 1021.6
20260901094506 70 203 0.0 0.0 0.00 0.00 0.00 99 1021.6
20260901091527 71 225 0.0 0.0 0.00 0.00 0.00 99 1021.3
20260901090328 71 225 0.0 0.0 0.00 0.00 0.00 99 1021.3
20260901085126 71 248 0.0 0.0 0.00 0.00 0.00 99 1021.3
20260901084511 71 203 0.0 0.0 0.00 0.00 0.00 99 1021.3
20260901083928 71 203 0.0 0.0 0.00 0.00 0.00 99 1021.3
20260901083348 71 225 0.0 0.0 0.00 0.00 0.00 99 1021.3
20260901082727 71 203 0.0 0.0 0.00 0.00 0.00 99 1021.3
20260901082127 71 203 0.0 0.0 0.00 0.00 0.00 99 1021.3
20260901081515 71 180 0.0 0.0 0.00 0.00 0.00 99 1021.3
20260901080936 71 225 0.0 0.0 0.00 0.00 0.00 99 1021.3
20260901080350 71 203 0.0 0.0 0.00 0.00 0.00 99 1021.3
20260901075745 71 225 0.0 0.0 0.00 0.00 0.00 99 1021.3
20260901074532 71 270 0.0 0.0 0.00 0.00 0.00 99 1021.3
20260901073907 71 225 0.0 0.0 0.00 0.00 0.00 99 1021.3
20260901073318 71 180 0.0 0.0 0.00 0.00 0.00 99 1021.3
20260901072722 71 203 0.0 0.0 0.00 0.00 0.00 99 1021.3
20260901072130 71 270 0.0 0.0 0.00 0.00 0.00 99 1021.3
20260901071541 72 248 0.0 0.0 0.00 0.00 0.00 99 1020.9
20260901070311 72 203 0.0 0.0 0.00 0.00 0.00 99 1020.9
20260901065724 71 203 0.0 0.0 0.00 0.00 0.00 99 1021.3
20260901065128 71 315 0.0 0.0 0.00 0.00 0.00 99 1021.3
20260901064544 72 203 0.0 0.0 0.00 0.00 0.00 99 1021.3
20260901063940 71 248 0.0 0.0 0.00 0.00 0.00 99 1021.3
20260901062717 72 225 0.0 0.0 0.00 0.00 0.00 99 1021.3
20260901062132 72 225 0.0 0.0 0.00 0.00 0.00 99 1021.3
20260901061535 72 203 0.0 0.0 0.00 0.00 0.00 99 1021.3
20260901060943 72 225 0.0 0.0 0.00 0.00 0.00 99 1021.3
20260901060321 72 203 0.0 0.0 0.00 0.00 0.00 99 1021.3
20260901055735 72 203 0.0 0.0 0.00 0.00 0.00 99 1021.6
20260901054517 72 203 0.0 0.0 0.00 0.00 0.00 99 1021.6
20260901053950 72 203 0.0 0.0 0.00 0.00 0.00 99 1021.6
20260901053345 72 203 0.0 0.0 0.00 0.00 0.00 99 1021.3
20260901051513 72 248 0.0 0.0 0.00 0.00 0.00 99 1021.6
20260901050908 72 270 0.0 0.0 0.00 0.00 0.00 99 1021.6
20260901050325 72 270 0.0 0.0 0.00 0.00 0.00 99 1021.6
20260901045722 72 203 0.0 0.0 0.00 0.00 0.00 99 1021.6
20260901045114 73 225 0.0 0.0 0.00 0.00 0.00 99 1021.6
20260901044510 73 225 0.0 0.0 0.00 0.00 0.00 99 1021.6
20260901042107 73 203 0.0 0.0 0.00 0.00 0.00 99 1022.0
20260901041548 73 203 0.0 0.0 0.00 0.00 0.00 99 1022.0
20260901040347 73 225 0.0 0.0 0.00 0.00 0.00 99 1021.6
20260901035745 74 203 0.0 0.0 0.00 0.00 0.00 99 1021.6
20260901035136 74 225 0.0 0.0 0.00 0.00 0.00 99 1022.0
20260901033909 74 203 0.0 0.0 0.00 0.00 0.00 99 1022.0
20260901033312 74 248 0.0 0.0 0.00 0.00 0.00 99 1022.0
20260901032710 74 203 0.0 0.0 0.00 0.00 0.00 99 1022.0
20260901031510 74 203 0.0 0.0 0.00 0.00 0.00 99 1022.0
20260901030932 74 203 0.0 0.0 0.00 0.00 0.00 99 1022.0
20260901030349 74 203 0.0 0.0 0.00 0.00 0.00 99 1022.0
20260901025131 75 203 0.0 0.0 0.00 0.00 0.00 99 1022.0
20260901024522 75 203 0.0 0.0 0.00 0.00 0.00 99 1022.0
20260901023947 75 203 0.0 0.0 0.00 0.00 0.00 99 1022.0
20260901023313 75 203 0.0 0.0 0.00 0.00 0.00 99 1022.0
20260901022124 76 203 0.0 0.0 0.00 0.00 0.00 99 1022.0
20260901021528 76 225 0.0 0.0 0.00 0.00 0.00 99 1022.0
20260901020927 76 203 0.0 0.0 0.00 0.00 0.00 99 1022.0
20260901015726 76 203 0.0 0.0 0.00 0.00 0.00 99 1021.6
20260901015140 76 203 0.0 0.0 0.00 0.00 0.00 99 1021.6
20260901014526 77 203 0.0 0.0 0.00 0.00 0.00 99 1021.6
20260901013923 77 203 0.0 0.0 0.00 0.00 0.00 99 1021.6
20260901013343 77 225 0.0 0.0 0.00 0.00 0.00 99 1021.6
20260901012709 77 225 0.0 0.0 0.00 0.00 0.00 99 1021.3
20260901012114 77 203 0.0 0.0 0.00 0.00 0.00 99 1021.3
20260901011528 78 225 0.0 0.0 0.00 0.00 0.00 99 1020.9
20260901010940 78 225 0.0 0.0 0.00 0.00 0.00 99 1020.9
20260901005141 78 225 0.9 1.7 0.00 0.00 0.00 99 1020.6
20260901004538 78 203 1.7 1.7 0.00 0.00 0.00 99 1020.6
20260901003923 79 203 0.0 0.0 0.00 0.00 0.00 99 1020.6
20260901003311 79 225 0.0 0.9 0.00 0.00 0.00 99 1020.6